[[{"header":{"parameterUnit":"m.s-1","parameterCategory":1,"la1":30.2991,"la2":30.254,"lo1":-89.0895,"lo2":-89.0444,"dy":0.0017,"dx":0.0017,"nx":28,"ny":28,"refTime":"2024-07-04T09:00:00:Z","depth":0,"parameterNumber":2,"parameterNumberName":"U-component_of_WINDS"},"data":[0,0,0,0,0,0,0,0,0,0,0,0,0,0,0,0,0,0,0,0,0,0,0,0,0,0,0,0,0,0,0,0,0,0,0,0,0,0,0,0,0,0,0,0,0,0,0,0,0,0,0,0,0,0,0,0,0,0,1.8195,1.8195,0,1.8242,1.8242,1.8243,1.8248,1.8248,1.8247,1.8247,1.8299,1.8301,1.8303,0,0,0,0,0,0,0,0,0,0,0,0,0,1.8113,1.8115,1.8194,1.8195,1.8196,1.8242,1.8242,1.8243,1.8248,1.8247,1.8247,1.8246,1.8299,1.8301,1.8303,0,0,0,0,0,0,0,0,0,0,0,0,0,1.8153,1.8115,1.8194,1.8204,1.8205,1.8241,1.8242,1.8243,1.8248,1.8247,1.8247,1.8246,1.8298,1.8301,1.8303,1.8335,0,0,1.8312,1.8313,0,0,0,0,0,0,0,0,1.8151,1.8156,1.8202,1.8203,1.8205,1.8238,1.8233,1.8274,1.8248,1.8232,1.8247,1.8246,1.828,1.8284,1.8295,1.8338,1.834,1.8312,1.8314,1.8315,1.8316,0,0,0,0,0,0,0,1.8148,1.8154,1.8213,1.8202,1.8204,1.8207,1.8212,1.8241,1.826,1.8233,1.8234,1.8239,1.8281,1.8292,1.8296,1.8341,1.8312,1.8315,1.8316,1.8317,1.8414,1.8415,0,0,0,0,0,0,1.8143,1.8152,1.8212,1.8215,1.8175,1.8209,1.8214,1.8228,1.8259,1.8263,1.824,1.8239,1.8288,1.8293,1.8298,1.8338,1.8315,1.8318,1.8319,1.8413,1.8415,1.8415,0,0,0,0,0,0,1.8141,1.8148,1.821,1.8184,1.8192,1.8211,1.8227,1.823,1.8241,1.8264,1.8268,1.8248,1.8287,1.8294,1.8326,1.834,1.8319,1.8322,1.8412,1.8414,1.8415,1.8419,0,0,0,0,0,0,1.8139,1.8148,1.8159,1.8184,1.8193,1.8236,1.8227,1.8231,1.8245,1.8245,1.8272,1.8276,1.8287,1.8322,1.8329,1.8344,1.8324,1.8411,1.8413,1.8415,1.8418,1.842,1.8422,0,0,0,0,0,1.8136,1.8159,1.816,1.8167,1.8207,1.8237,1.8242,1.8253,1.8246,1.8259,1.8274,1.8275,1.8337,1.8325,1.8333,1.8349,1.841,1.8412,1.8414,1.8417,1.842,1.8422,0,0,0,0,0,0,1.8137,1.8162,1.8163,1.8194,1.8213,1.8237,1.8253,1.8256,1.8278,1.8277,1.829,1.8297,1.8329,1.8342,1.8328,1.8382,1.8373,1.8377,1.8372,1.8376,1.8378,1.8375,1.8326,0,0,0,0,0,1.814,1.816,1.8182,1.8208,1.8217,1.8233,1.8247,1.8253,1.8274,1.8282,1.8299,1.8321,1.8345,1.8361,1.8385,1.8419,1.8426,1.8434,1.8437,1.8439,1.8442,1.8463,1.8467,1.8422,1.8422,1.8422,0,0,1.8148,1.8164,1.8177,1.8208,1.8223,1.8246,1.824,1.8264,1.8281,1.8286,1.8318,1.8331,1.8356,1.839,1.8406,1.8402,1.8456,1.8441,1.8442,1.8445,1.8466,1.847,1.8474,1.8424,1.8423,1.8423,0,0,1.8174,1.8188,1.8211,1.8226,1.8249,1.826,1.8265,1.829,1.8298,1.833,1.8334,1.8356,1.8397,1.8415,1.8429,1.8463,1.8466,1.847,1.8483,1.8503,1.8507,1.851,1.8524,1.8528,1.8473,1.8473,1.8473,0,1.8181,1.8214,1.8223,1.8247,1.8261,1.8265,1.829,1.8305,1.8335,1.8346,1.8341,1.8393,1.841,1.8449,1.8457,1.8468,1.8476,1.8467,1.8505,1.8509,1.8512,1.8525,1.853,1.8474,1.8474,1.8473,1.8473,0,1.8222,1.8245,1.8261,1.8289,1.8305,1.8329,1.8344,1.8359,1.8364,1.8376,1.8409,1.8429,1.8458,1.8467,1.8473,1.8507,1.8505,1.8502,1.8494,1.8517,1.8529,1.8534,1.8474,1.8474,1.8474,1.8474,0,0,1.825,1.8282,1.8288,1.8302,1.8327,1.8346,1.8371,1.8397,1.8411,1.8432,1.8454,1.8489,1.8488,1.8504,1.8512,1.8529,1.8556,1.8525,1.8526,1.8532,1.8597,1.86,1.8605,1.8558,1.8559,1.856,1.8596,0,1.828,1.8323,1.8332,1.837,1.8393,1.8397,1.8419,1.8438,1.845,1.8472,1.8486,1.8511,1.8506,1.8516,1.8533,1.8549,1.857,1.8547,1.8581,1.8582,1.8576,1.8611,1.8614,1.8647,1.86,1.8601,1.8602,0,1.8321,1.8341,1.8381,1.8405,1.8415,1.8434,1.846,1.848,1.8502,1.851,1.8528,1.8534,1.8562,1.8551,1.8591,1.8575,1.859,1.86,1.8602,1.8606,1.8594,1.8618,1.8657,1.8663,1.8609,1.8609,1.8608,0,1.8339,1.8377,1.8406,1.8417,1.8445,1.8459,1.8471,1.8493,1.8508,1.8531,1.8542,1.8568,1.8583,1.8603,1.8617,1.8608,1.8657,1.8647,1.8665,1.8665,1.8676,1.8676,1.8719,1.8684,1.8683,1.8683,1.8683,0,1.8372,1.8397,1.8414,1.8432,1.8461,1.8472,1.85,1.8513,1.8532,1.8554,1.8559,1.858,1.8596,1.862,1.8631,1.8663,1.8669,1.8678,1.8681,1.8678,1.8677,1.8689,1.8687,1.8685,1.8684,1.8684,1.8684,0,1.8398,1.841,1.8442,1.8466,1.8473,1.8493,1.8514,1.8532,1.8544,1.8572,1.8579,1.8598,1.8626,1.8642,1.8677,1.8684,1.8721,1.8722,1.8713,1.8715,1.8733,1.8731,1.8787,1.8795,1.8752,1.8753,1.8753,0,1.8418,1.8437,1.8463,1.8477,1.849,1.8513,1.8529,1.8541,1.8557,1.8585,1.86,1.8628,1.8651,1.8696,1.8714,1.8742,1.8745,1.8762,1.8749,1.8746,1.8747,1.8746,1.8749,1.8765,1.8765,1.8766,1.8766,0,1.8455,1.846,1.8482,1.8506,1.8525,1.8545,1.8565,1.8577,1.8592,1.8611,1.8638,1.8656,1.8692,1.872,1.8749,1.8764,1.8769,1.877,1.8776,1.8774,1.8768,1.8773,1.8721,1.8769,1.8768,1.8768,1.8768,1.8768,1.848,1.8497,1.8518,1.8543,1.8559,1.8577,1.8596,1.861,1.8633,1.8662,1.8668,1.8698,1.8722,1.876,1.8776,1.8801,1.8798,1.8806,1.8809,1.8811,1.8812,1.8763,1.8806,1.8806,1.8806,1.8806,1.8806,0,1.8518,1.8532,1.8554,1.8581,1.8601,1.8601,1.8623,1.864,1.8666,1.8687,1.8709,1.8742,1.8769,1.879,1.8818,1.8834,1.8837,1.8842,1.8841,1.8845,1.8813,1.8805,1.8839,1.8839,1.8839,1.8839,1.8839,1.8839,1.854,1.857,1.8578,1.8617,1.863,1.8659,1.8672,1.869,1.8706,1.8742,1.8765,1.8777,1.8798,1.8828,1.8854,1.886,1.8871,1.8875,1.8881,1.8851,1.8847,1.8844,1.8837,1.8877,1.8877,1.8912,1.8912,1.8912]},{"header":{"parameterUnit":"m.s-1","parameterCategory":1,"la1":30.2991,"la2":30.254,"lo1":-89.0895,"lo2":-89.0444,"dy":0.0017,"dx":0.0017,"nx":28,"ny":28,"refTime":"2024-07-04T09:00:00:Z","depth":0,"parameterNumber":3,"parameterNumberName":"V-component_of_WINDS"},"data":[0,0,0,0,0,0,0,0,0,0,0,0,0,0,0,0,0,0,0,0,0,0,0,0,0,0,0,0,0,0,0,0,0,0,0,0,0,0,0,0,0,0,0,0,0,0,0,0,0,0,0,0,0,0,0,0,0,0,1.7137,1.7136,0,1.708,1.708,1.7079,1.7041,1.704,1.704,1.704,1.6978,1.6977,1.6975,0,0,0,0,0,0,0,0,0,0,0,0,0,1.7207,1.7206,1.7137,1.7136,1.7136,1.7081,1.708,1.7079,1.7041,1.704,1.704,1.704,1.6979,1.6977,1.6975,0,0,0,0,0,0,0,0,0,0,0,0,0,1.7166,1.7206,1.7137,1.711,1.7107,1.7081,1.708,1.7079,1.7041,1.704,1.704,1.7039,1.6979,1.6977,1.6975,1.697,0,0,1.6969,1.6968,0,0,0,0,0,0,0,0,1.7169,1.7164,1.7115,1.7112,1.7108,1.7067,1.7082,1.7042,1.7041,1.7066,1.704,1.7039,1.7008,1.7003,1.6994,1.6967,1.6965,1.6969,1.6967,1.6966,1.6966,0,0,0,0,0,0,0,1.7171,1.7166,1.7114,1.7114,1.711,1.7099,1.7093,1.7074,1.704,1.7063,1.7061,1.7055,1.7006,1.6996,1.6992,1.6964,1.6969,1.6967,1.6965,1.6965,1.6928,1.6929,0,0,0,0,0,0,1.7179,1.7168,1.7116,1.7113,1.7138,1.7098,1.7091,1.7081,1.704,1.7033,1.7055,1.7053,1.6999,1.6994,1.699,1.698,1.6966,1.6964,1.6963,1.6928,1.6929,1.6929,0,0,0,0,0,0,1.7181,1.7175,1.7118,1.714,1.7132,1.7097,1.7086,1.708,1.7069,1.7033,1.7027,1.7051,1.6999,1.6992,1.6975,1.6977,1.6964,1.6962,1.6928,1.6928,1.6929,1.6961,0,0,0,0,0,0,1.7183,1.7176,1.7175,1.714,1.7131,1.7107,1.7086,1.7079,1.7066,1.7063,1.7028,1.7022,1.6998,1.6978,1.6973,1.6974,1.696,1.6928,1.6928,1.6929,1.696,1.6963,1.6965,0,0,0,0,0,1.7186,1.7186,1.7175,1.7169,1.7129,1.7107,1.7101,1.7075,1.7067,1.7065,1.7041,1.7023,1.6978,1.6977,1.6971,1.6971,1.6927,1.6928,1.6929,1.6959,1.6962,1.6965,0,0,0,0,0,0,1.722,1.7181,1.7168,1.7157,1.7136,1.71,1.7097,1.708,1.706,1.7058,1.7025,1.7017,1.7003,1.6985,1.6985,1.6963,1.695,1.695,1.6975,1.6978,1.6981,1.6985,1.6958,0,0,0,0,0,1.7227,1.7214,1.7179,1.7173,1.7163,1.7132,1.7121,1.7103,1.7079,1.7069,1.7045,1.7021,1.7001,1.6989,1.6969,1.6957,1.6948,1.6954,1.6957,1.6959,1.6959,1.6949,1.6951,1.6931,1.6931,1.6931,0,0,1.724,1.7217,1.721,1.7179,1.716,1.7146,1.7124,1.711,1.7098,1.7067,1.7049,1.703,1.7001,1.6986,1.6978,1.6971,1.6962,1.696,1.6962,1.696,1.695,1.6952,1.6953,1.6931,1.6931,1.6931,0,0,1.7256,1.7238,1.723,1.7212,1.7184,1.7163,1.7161,1.7128,1.7114,1.7096,1.7072,1.7056,1.7024,1.7004,1.6989,1.6997,1.6978,1.6991,1.7005,1.6996,1.6997,1.6998,1.6999,1.7,1.6991,1.6991,1.6991,0,1.7275,1.7254,1.7228,1.7215,1.7201,1.7173,1.7163,1.7146,1.7113,1.7103,1.7096,1.7053,1.7032,1.7011,1.7012,1.7002,1.6997,1.6994,1.6999,1.7,1.7001,1.7001,1.7002,1.6992,1.6992,1.6992,1.6992,0,1.7278,1.7263,1.726,1.7229,1.7215,1.7204,1.7175,1.7163,1.7146,1.7126,1.7106,1.708,1.7053,1.7047,1.703,1.7023,1.7019,1.7006,1.6992,1.7005,1.7005,1.7005,1.6995,1.6994,1.6994,1.6993,0,0,1.7314,1.7269,1.7268,1.7253,1.722,1.7207,1.7194,1.7169,1.7159,1.7137,1.7123,1.7096,1.7083,1.7067,1.7047,1.704,1.7045,1.7027,1.7026,1.703,1.7033,1.7043,1.7043,1.7033,1.7033,1.7033,1.7035,0,1.7324,1.73,1.7276,1.726,1.7245,1.7218,1.7206,1.7183,1.7163,1.7146,1.7124,1.7104,1.709,1.708,1.7071,1.7046,1.7045,1.7046,1.7018,1.7017,1.7025,1.7044,1.7054,1.7057,1.7035,1.7035,1.7035,0,1.7333,1.7312,1.7295,1.7263,1.7255,1.7245,1.722,1.7204,1.7177,1.7163,1.7145,1.7124,1.7106,1.7095,1.7069,1.707,1.7057,1.7043,1.7043,1.7038,1.7027,1.7038,1.7058,1.7058,1.7035,1.7035,1.7035,0,1.7359,1.7327,1.7313,1.7301,1.7263,1.7256,1.7239,1.7212,1.7198,1.7175,1.7166,1.7141,1.7127,1.7107,1.7079,1.7073,1.7055,1.7042,1.7041,1.7042,1.7038,1.7038,1.7055,1.7032,1.7032,1.7032,1.7032,0,1.7372,1.7362,1.7324,1.7315,1.7302,1.7274,1.7261,1.7242,1.7218,1.7203,1.7178,1.7164,1.7128,1.711,1.7088,1.7068,1.7063,1.7049,1.7043,1.7051,1.7053,1.7041,1.704,1.7032,1.7032,1.7032,1.7032,0,1.7398,1.7373,1.7355,1.732,1.7311,1.7303,1.7273,1.7262,1.7241,1.7222,1.7216,1.7182,1.7159,1.7129,1.7096,1.7081,1.7064,1.7056,1.7074,1.707,1.707,1.707,1.7079,1.7078,1.7057,1.7058,1.7058,0,1.7408,1.74,1.7365,1.7354,1.7338,1.7321,1.7307,1.7278,1.7264,1.7232,1.7224,1.7199,1.7178,1.7141,1.7112,1.7086,1.7076,1.7081,1.7072,1.7079,1.7074,1.7075,1.7073,1.7083,1.7083,1.7084,1.7084,0,1.7426,1.7414,1.7396,1.7373,1.7357,1.7337,1.7315,1.7307,1.7273,1.7259,1.7235,1.7219,1.7185,1.716,1.713,1.7111,1.7091,1.7087,1.7085,1.7093,1.7103,1.7096,1.7079,1.7087,1.7087,1.7086,1.7086,1.7086,1.7444,1.7435,1.7409,1.7388,1.737,1.735,1.7338,1.7316,1.7296,1.7268,1.7251,1.7228,1.7199,1.7157,1.7139,1.7119,1.7111,1.7109,1.7108,1.7108,1.711,1.7107,1.7113,1.7113,1.7113,1.7113,1.7113,0,1.746,1.7442,1.7424,1.7395,1.7379,1.7364,1.7339,1.7326,1.7306,1.7282,1.7261,1.7233,1.7209,1.7178,1.715,1.714,1.713,1.7134,1.7134,1.7129,1.7118,1.7122,1.7142,1.7142,1.7142,1.7142,1.7142,1.7142,1.7466,1.745,1.7435,1.7408,1.7389,1.7368,1.7355,1.7336,1.7316,1.7287,1.7267,1.7248,1.722,1.719,1.7166,1.7157,1.7148,1.7154,1.7142,1.7133,1.713,1.7128,1.7131,1.7152,1.7152,1.7154,1.7154,1.7154]}]]